Location: Caltech
(34.1382°N, 118.1253°W)
Time: 04:22:27
(UTC-07:00)

Gurwin Techsat 1B - Visible Passes

Search period start: 22 June 2018 00:00
Search period end: 02 July 2018 00:00
Orbit: 812 x 814 km, 98.6° (Epoch: 22 June)

Date Brightness Start Highest point End Pass type
(mag) Time Alt. Az. Time Alt. Az. Time Alt. Az.
22 Jun 8.6 02:32:44 10° NNE 02:38:03 71° ESE 02:38:13 70° ESE visible
22 Jun 10.6 04:15:07 10° NW 04:17:19 13° WNW 04:19:25 10° W visible
23 Jun 9.4 02:10:10 10° NNE 02:15:05 41° E 02:15:05 41° E visible
23 Jun 10.1 03:50:54 10° NNW 03:54:47 21° WNW 03:56:18 19° W visible
24 Jun 10.2 01:47:56 10° NE 01:51:58 25° E 01:51:58 25° E visible
24 Jun 9.5 03:27:24 10° N 03:32:09 34° WNW 03:33:10 31° W visible
25 Jun 10.8 01:26:24 10° ENE 01:28:50 14° E 01:28:50 14° E visible
25 Jun 8.7 03:04:15 10° N 03:09:27 57° WNW 03:10:02 54° W visible
26 Jun 8.4 02:41:20 10° NNE 02:46:41 86° ESE 02:46:55 82° SSE visible
26 Jun 10.8 04:25:13 10° NW 04:25:49 10° WNW 04:26:26 10° WNW visible
27 Jun 9.1 02:18:40 10° NNE 02:23:47 51° E 02:23:47 51° E visible
27 Jun 10.3 03:59:55 10° NNW 04:03:19 17° WNW 04:04:59 15° W visible
28 Jun 9.9 01:56:17 10° NE 02:00:39 30° E 02:00:39 30° E visible
28 Jun 9.7 03:36:14 10° NNW 03:40:44 28° WNW 03:41:51 26° W visible
29 Jun 10.6 01:34:24 10° NE 01:37:30 18° E 01:37:30 18° E visible
29 Jun 9.0 03:12:58 10° N 03:18:03 47° WNW 03:18:43 44° W visible
30 Jun 8.5 02:49:58 10° N 02:55:18 79° WNW 02:55:34 76° WSW visible
01 Jul 8.8 02:27:12 10° NNE 02:32:26 62° E 02:32:26 62° E visible
01 Jul 10.5 04:09:05 10° NNW 04:11:50 14° WNW 04:13:38 12° W visible
